Weather in Dorokhovo

Russia / Moscow Oblast     55°33′03″N   36°22′34″E
temp.,
°C
wind,
m/s
gust,
m/s
humid.,
%
clouds,
%
prec.,
mm/h
press.,
hPa
HPBL,
m
22 may, sun
sun2200:00+5ne3681100 0.0 1006145
03:00+4ene4117924 0.0 1005400
06:00+5ene411715 0.0 1004507
09:00+9ne57545 0.0 1004957
12:00+11ne56385 0.0 10041739
15:00+11nne56345 0.0 10041906
18:00+10nne46415 0.0 10041914
21:00+5nne410635 0.0 1006534
23 may, mon
mon2300:00+1n26815 0.0 1008115
03:000nnw23805 0.0 100857
06:00+2nw277237 0.0 1008230
09:00+8nnw47465 0.0 10071388
12:00+11nw56386 0.0 10061734
15:00+12nw583489 0.0 10061899
18:00+12nw4939100 0.0 10052029
21:00+6wnw3764100 0.0 1006132
24 may, tue
tue2400:00+5nw3962100 0.0 1006244
03:00+5nw41159100 0.0 1006435
06:00+5nw41164100 0.0 1006783
09:00+8nw51046100 0.0 10071415
12:00+8n6959100 0.0 10081501
15:00+7n5861100 0.1 10101346
18:00+7n366081 0.0 10121201
21:00+3n228135 0.0 101331
25 may, wed
wed2500:00+3nnw238594 0.0 101463
03:00+3nnw1381100 0.0 1015121
06:00+4nnw2475100 0.0 1016400
09:00+7nnw2455100 0.1 10161511
12:00+9nw345085 0.0 10161522
15:00+10wnw4553100 0.0 10161484
18:00+8wnw138195 0.3 1016639
21:00+5ssw119493 0.3 101510
26 may, thu
thu2600:00+3sw239612 0.0 101553
03:00+4s229526 0.0 101329
06:00+7sse248994 0.0 1011133
09:00+11sse2476100 0.0 1008305
12:00+13sse2576100 0.0 1005333
15:00+14ssw4992100 0.9 1002527
18:00+12sse2699100 4.2 999285
21:00+11w25100100 9.6 998212